CDT,Max TemperatureF,Mean TemperatureF,Min TemperatureF,Max Dew PointF,MeanDew PointF,Min DewpointF,Max Humidity, Mean Humidity, Min Humidity, Max Sea Level PressureIn, Mean Sea Level PressureIn, Min Sea Level PressureIn, Max VisibilityMiles, Mean VisibilityMiles, Min VisibilityMiles, Max Wind SpeedMPH, Mean Wind SpeedMPH, Max Gust SpeedMPH,PrecipitationIn, CloudCover, Events, WindDirDegrees
2013-10-1,83,74,65,71,68,64,100,84,65,30.09,30.05,30.01,10,10,1,12,4,,0.00,6,,203
2013-10-2,79,72,65,74,70,66,100,93,78,30.13,30.08,30.05,10,7,0,10,2,,0.00,6,Fog,195
2013-10-3,86,78,69,71,69,65,100,80,49,30.09,30.04,29.99,10,9,3,13,3,17,0.00,3,Rain,195
2013-10-4,86,76,68,73,70,66,99,82,62,30.09,30.04,30.01,10,10,7,12,5,,0.00,3,Rain,195
2013-10-5,84,75,67,76,72,68,100,91,70,30.05,29.99,29.87,10,9,2,12,4,,0.29,6,Rain,192
2013-10-6,70,61,50,71,57,46,100,86,60,29.96,29.88,29.82,10,8,1,15,6,20,2.17,5,Rain,269
2013-10-7,66,56,46,52,48,46,100,80,50,30.16,30.05,29.93,10,10,2,10,4,16,0.00,1,,305
2013-10-8,72,58,44,53,48,44,100,81,36,30.24,30.18,30.14,10,8,0,14,3,20,0.00,1,Fog,84
2013-10-9,79,63,47,62,56,47,100,83,51,30.20,30.15,30.12,10,10,1,7,0,,0.00,2,,232
2013-10-10,81,66,52,64,59,52,100,82,45,30.18,30.11,30.05,10,7,0,6,0,,0.00,3,Fog,139
2013-10-11,81,66,51,62,58,52,100,80,44,30.10,30.05,30.00,10,7,0,7,1,,0.00,2,Fog,167
2013-10-12,81,66,52,66,61,52,100,84,51,30.14,30.07,30.03,10,8,0,9,2,21,0.00,3,Fog,233
2013-10-13,78,66,54,67,58,48,99,74,42,30.30,30.24,30.15,10,9,5,12,5,20,0.00,3,,8
2013-10-14,75,62,49,60,54,47,100,80,58,30.30,30.22,30.12,10,10,4,8,3,,0.00,0,,54
2013-10-15,73,65,57,68,64,57,100,94,77,30.12,30.03,29.95,10,8,3,12,3,,0.02,4,Rain,205
2013-10-16,68,58,48,67,56,49,100,87,61,30.02,29.98,29.94,10,10,7,10,5,14,0.06,6,Rain,307
2013-10-17,65,55,46,52,49,46,100,86,57,30.02,29.98,29.95,10,9,2,9,3,,0.08,5,Rain,333
2013-10-18,69,55,42,54,48,43,100,81,44,30.08,30.01,29.97,10,8,0,9,2,9,0.00,2,Fog,245
2013-10-19,57,49,41,54,47,40,100,88,54,30.07,29.98,29.89,10,9,5,13,3,20,0.17,5,Rain,292
2013-10-20,65,52,39,46,43,39,100,79,44,30.10,30.05,30.01,10,10,7,13,5,18,0.00,0,,208
2013-10-21,70,54,40,53,47,40,100,77,47,30.05,30.01,29.96,10,10,10,16,5,21,0.00,3,Rain,254
2013-10-22,61,49,37,47,40,34,100,71,39,30.08,29.99,29.85,10,10,7,10,4,16,0.00,3,Rain,234
2013-10-23,53,46,39,46,37,31,94,71,46,30.13,30.04,29.87,10,10,10,16,10,28,0.00,6,,318
2013-10-24,50,40,31,42,35,27,98,77,42,30.39,30.23,30.12,10,10,10,18,3,22,0.00,5,,317
2013-10-25,52,39,27,32,29,25,99,73,38,30.53,30.43,30.32,10,10,7,7,1,,0.00,0,,355
2013-10-26,58,44,31,43,36,29,99,74,46,30.31,30.17,30.04,10,10,10,22,7,26,0.00,3,,223
2013-10-27,65,49,33,47,40,33,100,74,36,30.13,30.09,30.04,10,9,0,7,1,,0.00,3,Fog,11
2013-10-28,70,58,46,53,48,45,97,73,44,30.27,30.18,30.08,10,9,0,7,1,,0.00,4,,79
2013-10-29,64,52,44,61,55,44,100,99,93,30.31,30.22,30.14,10,6,0,7,2,,0.18,6,Fog-Rain,124
2013-10-30,79,70,61,67,64,59,100,83,62,30.16,30.10,30.01,10,9,4,16,9,23,0.35,5,Rain,210
2013-10-31,70,64,59,68,63,57,99,88,71,30.00,29.71,29.49,10,10,3,24,13,34,0.39,7,Rain,208